Regional Weather Roundup
Issued by NWS

Home | Current Version | Previous Version | Text Only | Print | Product List | Glossary On
Versions: 1 2 3 4 5 6 7 8 9 10 11 12 13 14 15 16 17 18 19 20 21 22 23 24 25 26 27 28 29 30 31 32 33 34 35 36 37 38 39 40 41 42 43 44 45 46 47 48 49 50
000
ASUS43 KMPX 212101
RWRMN
WEATHER ROUNDUP FOR MINNESOTA
NATIONAL WEATHER SERVICE TWIN CITIES/CHANHASSEN MN
300 PM CST SUN DEC 21 2014


NOTE: "FAIR" INDICATES FEW OR NO CLOUDS BELOW 12,000 FEET WITH NO
SIGNIFICANT WEATHER AND/OR OBSTRUCTIONS TO VISIBILITY. N/A MEANS
CURRENT SKY AND/OR WEATHER CONDITIONS ARE NOT AVAILABLE.

MNZ060>063-068>070-212200-
   Twin Cities Metro

CITY           SKY/WX    TMP DP  RH WIND       PRES   REMARKS
TWIN CITIES    LGT RAIN  36  34  92 SE9       29.75F FOG
ST PAUL        LGT RAIN  36  35  96 SE12      29.77S FOG
CRYSTAL        LGT RAIN  36  34  92 SE10      29.73S FOG
BLAINE         LGT RAIN  37  37 100 SE12      29.74F
LAKEVILLE      CLOUDY    36  34  93 S8        29.75S FOG
EDEN PRAIRIE   LGT RAIN  36  34  92 S10       29.73F FOG
SOUTH ST PAUL  LGT RAIN  36  35  96 SE8       29.76S
LAKE ELMO      RAIN      36  34  93 S10       29.77F
$$
MNZ001>005-007-008-013>017-022>024-027-028-212200-
   Northwest Minnesota

CITY           SKY/WX    TMP DP  RH WIND       PRES   REMARKS
BEMIDJI        CLOUDY    31  30  95 S10       29.64F FOG     WCI  22
HALLOCK        CLOUDY    30  30 100 CALM      29.60F FOG
ROSEAU         CLOUDY    32  27  80 S10       29.63F HAZE    WCI  24
WARROAD        CLOUDY    30  28  93 S8        29.64F FOG     WCI  23
THIEF RVR FALL CLOUDY    30  28  93 S10       29.63R WCI  21
CROOKSTON      CLOUDY    32  30  93 S13       29.63S FOG     WCI  22
FOSSTON        CLOUDY    30  28  93 SE9       29.63S FOG     WCI  22
DETROIT LAKES  CLOUDY    32  32 100 S15       29.62F FOG     WCI  22
MOORHEAD       CLOUDY    34  34 100 SE14      29.61F FOG     WCI  24
PARK RAPIDS    CLOUDY    33  31  92 S12       29.64S FOG     WCI  24
MAHNOMEN       CLOUDY    32  30  92 S10       29.62F WCI  23
$$
MNZ006-009>011-018-025>026-212200-
   North Central Minnesota

CITY           SKY/WX    TMP DP  RH WIND       PRES   REMARKS
BAUDETTE       CLOUDY    31  28  89 S8        29.65F WCI  23
FLAG ISLAND    CLOUDY    30  28  93 S15       29.64S FOG     WCI  19
INTL FALLS     CLOUDY    31  29  92 S3        29.69F
WASKISH        CLOUDY    32  30  93 CALM      29.66S
BIG FORK       MIX PCPN  34  30  86 S8        29.69S WCI  27
LONGVILLE      CLOUDY    32  32 100 SE7       29.66F FOG     WCI  26
GRAND RAPIDS   CLOUDY    32  30  93 SE9       29.69S WCI  24
CRANE LAKE     CLOUDY    30  28  93 S6        29.75S FOG     WCI  24
ORR            CLOUDY    30  28  93 SE9       29.69S FOG     WCI  22
COOK           CLOUDY    30  30 100 SE7       29.72F FOG     WCI  23
WALKER         CLOUDY    31  31  96 SE7       29.65F FOG     WCI  25
$$
MNZ012-019>021-037-212200-
   Northeast Minnesota

CITY           SKY/WX    TMP DP  RH WIND       PRES   REMARKS
DULUTH         FOG       32  30  92 SE13      29.74F VSB 3/4 WCI  22
ELY            LGT SNOW  30  28  93 S7        29.74F WCI  23
HIBBING        CLOUDY    32  29  88 S8        29.72F FOG     WCI  25
EVELETH        CLOUDY    32  32 100 S8        29.74F FOG     WCI  25
DULUTH HARBOR  CLOUDY    34  32  93 CALM      29.80S FOG
TWO HARBORS    CLOUDY    36  30  80 E5        29.77S
SILVER BAY     LGT SNOW  34  32  93 E3        29.78F
GRAND MARAIS     N/A     35  32  88 SE8       29.85F WCI  29
G MARAIS ARPRT MIX PCPN  28  27  93 SE7       29.80S VSB 3/4 WCI  21
$$
MNZ029>031-032-039>041-046>048-054>057-064-212200-
   West Central Minnesota

CITY           SKY/WX    TMP DP  RH WIND       PRES   REMARKS
FERGUS FALLS   CLOUDY    34  32  93 SE14      29.64F FOG     WCI  24
WHEATON        CLOUDY    30  30 100 SE12      29.62S FOG     WCI  21
MORRIS         CLOUDY    34  34 100 S16       29.61F FOG     WCI  23
ALEXANDRIA     CLOUDY    33  32  96 S16       29.63F FOG     WCI  23
ELBOW LAKE     CLOUDY    32  32 100 SE16      29.61F FOG     WCI  21
WADENA         CLOUDY    32  30  93 S14       29.64F FOG     WCI  22
GLENWOOD       CLOUDY    34  34 100 SE13      29.64F FOG     WCI  25
APPLETON       CLOUDY    36  34  93 SE12      29.62F FOG
BENSON         CLOUDY    36  34  93 S10       29.64S FOG
ORTONVILLE     CLOUDY    34  30  86 SE9       29.59F FOG     WCI  26
MADISON        PTSUNNY   37  36  93 SE12      29.60F
WILLMAR        FOG       36  34  93 SE9       29.67S VSB 1/2
$$
MNZ033>034-036-042>043-049>051-058-059-212200-
   Central Minnesota

CITY           SKY/WX    TMP DP  RH WIND       PRES   REMARKS
ST CLOUD       FOG       36  34  92 SE8       29.70F VSB 3/4
SAUK CENTRE    CLOUDY    33  32  98 SE12      29.66F FOG     WCI  24
PAYNESVILLE    FOG       32  32 100 SE9       29.67F VSB 1/2 WCI  24
AITKIN         HAZE      36  30  80 S9        29.69S VSB 1
PINE RIVER     CLOUDY    32  32 100 SE10      29.70F FOG     WCI  24
BRAINERD       CLOUDY    33  32  96 S8        29.69F FOG     WCI  26
STAPLES        CLOUDY    32  32 100 SE6       29.66F FOG     WCI  26
LONG PRAIRIE   CLOUDY    32  32 100 SE10      29.66F FOG     WCI  24
LITTLE FALLS   CLOUDY    32  32 100 SE8       29.68F FOG     WCI  25
LITCHFIELD     CLOUDY    36  36 100 SE5       29.69S FOG
BUFFALO        LGT RAIN  35  33  94 SE9       29.72S WCI  28
MAPLE LAKE     CLOUDY    36  35  99 SE8       29.71S FOG
$$
MNZ037-044-045-052-053-212200-
   East Central Minnesota

CITY           SKY/WX    TMP DP  RH WIND       PRES   REMARKS
PRINCETON      CLOUDY    36  34  93 SE7       29.72F FOG
MORA           CLOUDY    34  32  93 SE6       29.75F WCI  29
CAMBRIDGE      LGT SNOW  36  28  75 SE5       29.72F
RUSH CITY      LGT RAIN  33  32  96 S5        29.75S WCI  29
MOOSE LAKE     CLOUDY    32  32 100 SE7       29.73S WCI  26
HINCKLEY       CLOUDY    34  32  93 CALM      29.75F
CLOQUET        CLOUDY    32  30  93 SE5       29.74F FOG     WCI  27
MCGREGOR       CLOUDY    32  32 100 SE9       29.72S WCI  24
$$
MNZ071>073-080-081-089-090-097-098-212200-
   Southwest Minnesota

CITY           SKY/WX    TMP DP  RH WIND       PRES   REMARKS
MONTEVIDEO     CLOUDY    36  36 100 S10       29.64F FOG
GRANITE FALLS  CLOUDY    35  34  96 SE12      29.66S FOG     WCI  26
CANBY          PTSUNNY   35  33  91 S9        29.61F WCI  28
MARSHALL       CLOUDY    36  30  80 S15       29.63S
REDWOOD FALLS  CLOUDY    35  34  96 SE10      29.67F FOG     WCI  27
OLIVIA         FOG       34  34 100 SE12      29.66S VSB 3/4 WCI  25
PIPESTONE      SNOW      36  34  93 S17       29.60F VSB<1/4
WINDOM         CLOUDY    37  37 100 S9        29.66S FOG
WORTHINGTON    CLOUDY    37 -11  12 S16G23    29.65F
JACKSON        CLOUDY    36  36 100 S15       29.69R FOG
TRACY          CLOUDY    37  36  94 S10G23    29.63F FOG
SLAYTON        FOG       35  35 100 S15G24    29.63F VSB 3/4 WCI  26
$$
MNZ065>067-074>077-082>085-091>093-212200-
   South Central Minnesota

CITY           SKY/WX    TMP DP  RH WIND       PRES   REMARKS
MANKATO        CLOUDY    37  34  87 S14G20    29.72S
NEW ULM        CLOUDY    36  36 100 S12       29.69F FOG
ST JAMES       CLOUDY    37  37 100 S12       29.70S FOG
FAIRMONT       CLOUDY    37  34  87 S18       29.69F
GLENCOE        CLOUDY    37  37 100 SE8       29.70S FOG
FARIBAULT      CLOUDY    36  36 100 S13G20    29.75S FOG
OWATONNA       CLOUDY    37  36  93 S13       29.75S FOG
WASECA         CLOUDY    36  36 100 S15       29.75S FOG
ALBERT LEA     CLOUDY    37  37 100 S15G23    29.73S FOG
$$
MNZ078>079-086>088-094>096-212200-
   Southeast Minnesota

CITY           SKY/WX    TMP DP  RH WIND       PRES   REMARKS
ROCHESTER      CLOUDY    36  34  92 S22G29    29.78F FOG
RED WING       DRIZZLE   37  36  93 S7        29.79F
STANTON        CLOUDY    37  35  91 S15       29.75S FOG
DODGE CENTER   CLOUDY    36  36 100 S21G26    29.74F FOG
WINONA         CLOUDY    37  34  87 S6G16     29.85S
AUSTIN         CLOUDY    36  36 100 S15G23    29.76F FOG
PRESTON        CLOUDY    35  34  96 S20G26    29.81F FOG     WCI  24
$$
ABBREVIATIONS USED IN REMARKS
   TC - TEMPERATURES IN CELSIUS
  WCI - WIND CHILL INDEX
   HX - HEAT INDEX
  VSB - VISIBILITY
$$



USA.gov is the U.S. government's official web portal to all federal, state and local government web resources and services.